GOKTURK 2

Last updated on Tue Oct 15 2024 00:02:24 GMT+0000 (Coordinated Universal Time)

1 39030U 12073A 24288.56347615 .00001502 00000+0 23396-3 0 9992 2 39030 97.7350 144.1698 0001779 104.5819 255.5587 14.74320175634524
UTC large
Height (km)
Speed (km/s)
/
Latitude / Longitude
Inclination (degrees)
Orbital Period (minutes)
Azimuth
Elevation
Range (km)
Doppler Factor

Next 0 passes for location: London (51.5072 / 0.1276)

Sorry there are no passes over London.